TimeAKST,TemperatureF,Dew PointF,Humidity,Sea Level PressureIn,VisibilityMPH,Wind Direction,Wind SpeedMPH,Gust SpeedMPH,PrecipitationIn,Events,Conditions,WindDirDegrees,DateUTC
12:53 AM,19.0,10.9,71,29.36,10.0,NNW,11.5,-,N/A,,Scattered Clouds,340,2011-12-21 09:53:00
1:53 AM,17.1,10.0,74,29.36,10.0,North,11.5,-,N/A,,Scattered Clouds,350,2011-12-21 10:53:00
3:53 AM,21.9,14.0,72,29.37,10.0,NNE,18.4,-,N/A,,Mostly Cloudy,20,2011-12-21 12:53:00
4:53 AM,21.9,14.0,72,29.38,10.0,North,13.8,-,N/A,,Mostly Cloudy,350,2011-12-21 13:53:00
5:53 AM,17.1,10.9,77,29.41,10.0,SSW,5.8,-,N/A,,Scattered Clouds,200,2011-12-21 14:53:00
6:53 AM,23.0,12.9,65,29.42,10.0,NNE,17.3,27.6,N/A,,Scattered Clouds,30,2011-12-21 15:53:00
7:53 AM,17.1,10.9,77,29.45,10.0,NW,9.2,-,N/A,,Scattered Clouds,310,2011-12-21 16:53:00
8:53 AM,19.9,12.0,71,29.46,10.0,North,12.7,-,N/A,,Scattered Clouds,360,2011-12-21 17:53:00
9:53 AM,21.0,12.9,71,29.47,10.0,NNE,21.9,-,N/A,,Mostly Cloudy,20,2011-12-21 18:53:00
10:53 AM,18.0,10.9,74,29.51,10.0,North,8.1,-,N/A,,Overcast,350,2011-12-21 19:53:00
11:53 AM,18.0,10.0,71,29.54,10.0,North,9.2,18.4,N/A,,Scattered Clouds,350,2011-12-21 20:53:00
12:53 PM,17.1,9.0,71,29.56,10.0,NNW,12.7,17.3,N/A,,Mostly Cloudy,330,2011-12-21 21:53:00
1:53 PM,14.0,7.0,74,29.57,10.0,NNW,12.7,-,N/A,,Scattered Clouds,330,2011-12-21 22:53:00
2:53 PM,18.0,9.0,68,29.60,10.0,NNW,11.5,-,N/A,,Mostly Cloudy,340,2011-12-21 23:53:00
3:53 PM,17.1,9.0,71,29.61,10.0,North,9.2,-,N/A,,Mostly Cloudy,350,2011-12-22 00:53:00
4:53 PM,16.0,9.0,74,29.62,10.0,WNW,5.8,-,N/A,,Mostly Cloudy,300,2011-12-22 01:53:00
5:53 PM,16.0,10.0,77,29.63,10.0,North,3.5,-,N/A,,Mostly Cloudy,10,2011-12-22 02:53:00
6:53 PM,16.0,10.0,77,29.64,10.0,Calm,Calm,-,N/A,,Mostly Cloudy,0,2011-12-22 03:53:00
7:53 PM,15.1,10.9,84,29.65,10.0,Calm,Calm,-,N/A,,Mostly Cloudy,0,2011-12-22 04:53:00
8:53 PM,12.0,9.0,88,29.65,10.0,ENE,3.5,-,N/A,,Mostly Cloudy,60,2011-12-22 05:53:00
9:53 PM,12.0,9.0,88,29.66,10.0,East,3.5,-,N/A,,Mostly Cloudy,90,2011-12-22 06:53:00
10:53 PM,7.0,5.0,92,29.68,10.0,North,3.5,-,N/A,,Scattered Clouds,360,2011-12-22 07:53:00
11:53 PM,5.0,-0.9,76,29.69,10.0,North,12.7,-,N/A,,Partly Cloudy,360,2011-12-22 08:53:00